When you browse on this site, cookies collect data to enhance your experience and personalize the content and advertising you see.
Visit our Privacy Policy to learn more. By continuing to use the site, you agree to this use of cookies and data.
  • în România
  • Lista ţărilor
  • Pe 7 zile
  • Temperatura apei
  • Meteo pe hartă
  • Widget-uri
  • user-avatar
    Intrare

    Meteo pe oră la York

    Astăzi, 31 Mai, Duminică

    Timp Temperatura Precipitaţii Vânt Presiune Umiditate
    00:00 +10°C° 0 mm 1 m/s 768 mmHg 94%
    01:00 +9°C° 0 mm 1 m/s 768 mmHg 94%
    02:00 +9°C° 0 mm 1 m/s 768 mmHg 94%
    03:00 +9°C° 0 mm 1 m/s 767 mmHg 94%
    04:00 +9°C° 0 mm 2 m/s 768 mmHg 92%
    05:00 +10°C° 0 mm 2 m/s 768 mmHg 89%
    06:00 +12°C° 0 mm 2 m/s 768 mmHg 88%
    07:00 +13°C° 0 mm 3 m/s 768 mmHg 81%
    08:00 +16°C° 0 mm 3 m/s 768 mmHg 74%
    09:00 +18°C° 0 mm 3 m/s 767 mmHg 67%
    10:00 +19°C° 0 mm 4 m/s 768 mmHg 65%
    11:00 +19°C° 0 mm 5 m/s 768 mmHg 62%
    12:00 +21°C° 0 mm 5 m/s 767 mmHg 61%
    13:00 +21°C° 0 mm 5 m/s 767 mmHg 59%
    14:00 +21°C° 0 mm 5 m/s 767 mmHg 58%
    15:00 +20°C° 0 mm 5 m/s 767 mmHg 56%
    16:00 +20°C° 0 mm 5 m/s 767 mmHg 59%
    17:00 +19°C° 0 mm 4 m/s 767 mmHg 63%
    18:00 +18°C° 0 mm 4 m/s 767 mmHg 66%
    19:00 +16°C° 0 mm 3 m/s 768 mmHg 73%
    20:00 +13°C° 0 mm 3 m/s 768 mmHg 80%
    21:00 +12°C° 0 mm 2 m/s 768 mmHg 87%
    22:00 +10°C° 0 mm 2 m/s 768 mmHg 87%
    23:00 +10°C° 0 mm 2 m/s 769 mmHg 87%

    Mâine, 1 Iunie, Luni

    Timp Temperatura Precipitaţii Vânt Presiune Umiditate
    00:00 +10°C° 0 mm 1 m/s 769 mmHg 87%
    01:00 +9°C° 0 mm 2 m/s 769 mmHg 87%
    02:00 +9°C° 0 mm 2 m/s 769 mmHg 88%
    03:00 +8°C° 0 mm 2 m/s 768 mmHg 88%
    04:00 +10°C° 0 mm 2 m/s 768 mmHg 86%
    05:00 +12°C° 0 mm 2 m/s 769 mmHg 83%
    06:00 +12°C° 0 mm 3 m/s 769 mmHg 81%
    07:00 +14°C° 0 mm 3 m/s 769 mmHg 75%
    08:00 +15°C° 0 mm 4 m/s 769 mmHg 70%
    09:00 +18°C° 0 mm 4 m/s 769 mmHg 64%
    10:00 +19°C° 0 mm 4 m/s 769 mmHg 63%
    11:00 +19°C° 0 mm 4 m/s 768 mmHg 62%
    12:00 +19°C° 0 mm 5 m/s 768 mmHg 62%
    13:00 +19°C° 0 mm 5 m/s 768 mmHg 60%
    14:00 +19°C° 0 mm 5 m/s 768 mmHg 58%
    15:00 +19°C° 0 mm 5 m/s 768 mmHg 56%
    16:00 +17°C° 0 mm 5 m/s 768 mmHg 58%
    17:00 +18°C° 0 mm 4 m/s 768 mmHg 61%
    18:00 +17°C° 0 mm 4 m/s 768 mmHg 64%
    19:00 +14°C° 0 mm 3 m/s 768 mmHg 71%
    20:00 +13°C° 0 mm 2 m/s 768 mmHg 79%
    21:00 +10°C° 0 mm 2 m/s 768 mmHg 87%
    22:00 +10°C° 0 mm 2 m/s 768 mmHg 88%
    23:00 +10°C° 0 mm 2 m/s 768 mmHg 89%

    Poimâine, 2 Iunie, Marţi

    Timp Temperatura Precipitaţii Vânt Presiune Umiditate
    00:00 +9°C° 0 mm 2 m/s 768 mmHg 89%
    01:00 +9°C° 0 mm 2 m/s 767 mmHg 90%
    02:00 +9°C° 0 mm 2 m/s 767 mmHg 90%
    03:00 +9°C° 0 mm 2 m/s 767 mmHg 90%
    04:00 +10°C° 0 mm 2 m/s 767 mmHg 88%
    05:00 +12°C° 0 mm 2 m/s 766 mmHg 86%
    06:00 +13°C° 0 mm 2 m/s 766 mmHg 83%
    07:00 +14°C° 0 mm 2 m/s 766 mmHg 77%
    08:00 +16°C° 0 mm 2 m/s 765 mmHg 71%
    09:00 +17°C° 0 mm 2 m/s 765 mmHg 65%
    10:00 +18°C° 0 mm 2 m/s 765 mmHg 60%
    11:00 +19°C° 0 mm 2 m/s 764 mmHg 56%
    12:00 +20°C° 0 mm 2 m/s 764 mmHg 51%
    13:00 +21°C° 0 mm 2 m/s 763 mmHg 51%
    14:00 +21°C° 0 mm 2 m/s 763 mmHg 50%
    15:00 +21°C° 0 mm 2 m/s 762 mmHg 49%
    16:00 +21°C° 0 mm 2 m/s 762 mmHg 54%
    17:00 +20°C° 0 mm 2 m/s 761 mmHg 60%
    18:00 +19°C° 0 mm 2 m/s 761 mmHg 65%
    19:00 +17°C° 0 mm 2 m/s 761 mmHg 70%
    20:00 +15°C° 0 mm 2 m/s 760 mmHg 76%
    21:00 +13°C° 0 mm 1 m/s 760 mmHg 81%
    22:00 +13°C° 0.1 mm 1 m/s 760 mmHg 81%
    23:00 +12°C° 0.1 mm 1 m/s 759 mmHg 80%

    3 Iunie, Miercuri

    Timp Temperatura Precipitaţii Vânt Presiune Umiditate
    00:00 +12°C° 0.1 mm 1 m/s 759 mmHg 80%
    01:00 +12°C° 0 mm 1 m/s 759 mmHg 80%
    02:00 +12°C° 0 mm 1 m/s 758 mmHg 80%
    03:00 +12°C° 0 mm 1 m/s 758 mmHg 79%
    04:00 +12°C° 0 mm 2 m/s 758 mmHg 81%
    05:00 +11°C° 0 mm 3 m/s 758 mmHg 83%
    06:00 +11°C° 0 mm 4 m/s 757 mmHg 85%
    07:00 +12°C° 0 mm 4 m/s 758 mmHg 83%
    08:00 +12°C° 0 mm 4 m/s 758 mmHg 82%
    09:00 +13°C° 0 mm 5 m/s 758 mmHg 80%
    10:00 +14°C° 0 mm 5 m/s 758 mmHg 76%
    11:00 +14°C° 0 mm 6 m/s 758 mmHg 71%
    12:00 +15°C° 0 mm 6 m/s 758 mmHg 67%
    13:00 +15°C° 0.1 mm 6 m/s 758 mmHg 67%
    14:00 +15°C° 0.1 mm 6 m/s 757 mmHg 68%
    15:00 +15°C° 0.1 mm 6 m/s 757 mmHg 68%
    16:00 +14°C° 0.1 mm 6 m/s 757 mmHg 73%
    17:00 +13°C° 0.1 mm 6 m/s 757 mmHg 78%
    18:00 +11°C° 0.1 mm 6 m/s 757 mmHg 82%
    19:00 +10°C° 0 mm 5 m/s 757 mmHg 82%
    20:00 +10°C° 0 mm 5 m/s 757 mmHg 82%
    21:00 +10°C° 0 mm 4 m/s 757 mmHg 81%
    22:00 +8°C° 0 mm 4 m/s 757 mmHg 85%
    23:00 +7°C° 0 mm 4 m/s 757 mmHg 88%

    4 Iunie, Joi

    Timp Temperatura Precipitaţii Vânt Presiune Umiditate
    00:00 +7°C° 0 mm 3 m/s 756 mmHg 91%
    01:00 +7°C° 0 mm 3 m/s 756 mmHg 91%
    02:00 +5°C° 0 mm 3 m/s 756 mmHg 91%
    03:00 +5°C° 0 mm 3 m/s 755 mmHg 91%
    04:00 +7°C° 0 mm 2 m/s 755 mmHg 87%
    05:00 +8°C° 0 mm 2 m/s 754 mmHg 83%
    06:00 +9°C° 0 mm 2 m/s 754 mmHg 79%
    07:00 +10°C° 0 mm 2 m/s 754 mmHg 75%
    08:00 +12°C° 0 mm 2 m/s 754 mmHg 71%
    09:00 +13°C° 0 mm 2 m/s 753 mmHg 66%
    10:00 +13°C° 0.1 mm 3 m/s 753 mmHg 64%
    11:00 +14°C° 0.1 mm 3 m/s 753 mmHg 61%
    12:00 +16°C° 0.1 mm 3 m/s 752 mmHg 58%
    13:00 +15°C° 0.1 mm 4 m/s 752 mmHg 59%
    14:00 +15°C° 0.1 mm 4 m/s 752 mmHg 60%
    15:00 +15°C° 0.1 mm 4 m/s 751 mmHg 61%
    16:00 +15°C° 0.1 mm 4 m/s 751 mmHg 65%
    17:00 +14°C° 0.1 mm 5 m/s 750 mmHg 68%
    18:00 +14°C° 0.1 mm 5 m/s 750 mmHg 72%
    19:00 +13°C° 0.1 mm 5 m/s 750 mmHg 76%
    20:00 +12°C° 0.1 mm 4 m/s 750 mmHg 80%
    21:00 +11°C° 0.1 mm 4 m/s 749 mmHg 83%
    22:00 +11°C° 0.1 mm 4 m/s 749 mmHg 84%
    23:00 +10°C° 0.1 mm 5 m/s 748 mmHg 85%

    5 Iunie, Vineri

    Timp Temperatura Precipitaţii Vânt Presiune Umiditate
    00:00 +10°C° 0.1 mm 5 m/s 747 mmHg 85%
    01:00 +10°C° 0.3 mm 6 m/s 746 mmHg 86%
    02:00 +10°C° 0.3 mm 6 m/s 745 mmHg 87%
    03:00 +10°C° 0.3 mm 7 m/s 744 mmHg 88%
    04:00 +10°C° 0.2 mm 7 m/s 743 mmHg 88%
    05:00 +11°C° 0.2 mm 7 m/s 743 mmHg 87%
    06:00 +11°C° 0.2 mm 7 m/s 742 mmHg 87%
    07:00 +11°C° 0.1 mm 8 m/s 741 mmHg 81%
    08:00 +12°C° 0.1 mm 9 m/s 741 mmHg 74%
    09:00 +12°C° 0.1 mm 11 m/s 741 mmHg 68%
    10:00 +12°C° 0.1 mm 10 m/s 741 mmHg 67%
    11:00 +11°C° 0.1 mm 9 m/s 742 mmHg 66%
    12:00 +11°C° 0.1 mm 9 m/s 742 mmHg 64%
    13:00 +11°C° 0.2 mm 8 m/s 743 mmHg 66%
    14:00 +11°C° 0.2 mm 7 m/s 744 mmHg 67%
    15:00 +11°C° 0.2 mm 6 m/s 744 mmHg 69%
    16:00 +11°C° 0.3 mm 6 m/s 745 mmHg 71%
    17:00 +12°C° 0.3 mm 5 m/s 745 mmHg 74%
    18:00 +12°C° 0.3 mm 5 m/s 746 mmHg 77%
    19:00 +9°C° 0.2 mm 5 m/s 746 mmHg 79%
    20:00 +8°C° 0.2 mm 4 m/s 746 mmHg 82%
    21:00 +6°C° 0.2 mm 4 m/s 747 mmHg 84%
    22:00 +6°C° 0 mm 5 m/s 747 mmHg 84%
    23:00 +5°C° 0 mm 5 m/s 747 mmHg 83%
    Arată mai mult